Location: Orange Harbor Mobile Home Park
(26.6923°N, 81.7937°W)
Time: 07:48:39
(UTC+00:00)

Cosmos 1339 Rocket - Pass Details

Date: 19 September 2020
Orbit: 941 x 1006 km, 82.9° (Epoch: 30 October)

Event Time Altitude Azimuth Distance (km) Brightness Sun altitude
Exits shadow 09:22:54 59° 249° (WSW) 1,134 4.4 -25.5°
Maximum altitude 09:23:30 62° 276° (W) 1,106 4.4 -25.3°
Drops below altitude 10° 09:29:42 10° 357° (N) 2,730 7.0 -24.0°
Sets 09:32:15 0° 1° (N) 3,670 7.7 -23.5°
